Temperature
27 28 27 27 27 27 28 29 28 28 28 27 27 27 27 26 26 26 25 24 23 22 21 20 20 19 19 18 18 18 17 17 17 17 17 17 17 17 17 17 17 17 17 16
26 27 27 26 26 27 28 28 29 28 28 27 26 26 26 26 26 25 24 23 22 22 21 20 20 19 19 18 18 18 18 17 17 17 17 17 17 17 17 17 17 17 17 17
25 26 26 25 27 27 28 28 29 28 27 27 25 25 25 25 25 24 23 22 21 21 20 20 19 19 19 19 18 18 18 17 17 17 17 17 17 17 17 17 17 17 16 16
24 25 24 26 28 28 28 28 28 28 27 27 25 24 24 24 23 23 22 21 21 20 20 19 19 19 19 18 18 18 18 17 17 17 17 17 17 17 17 16 16 16 16 16
24 24 25 26 26 26 26 26 27 26 26 25 24 23 22 21 21 20 20 20 19 19 19 19 19 18 18 18 18 18 17 17 17 17 17 16 16 16 16 16 16 16 16 16
23 23 23 24 25 25 25 24 24 24 23 23 23 23 20 19 18 18 18 18 18 18 18 18 18 18 18 18 17 17 17 17 17 16 16 16 16 16 16 16 16 16 15 15
22 22 23 23 24 25 23 21 22 22 22 21 22 21 18 18 17 17 17 17 17 17 17 17 17 17 17 17 17 16 16 16 16 16 16 16 15 15 15 15 15 15 15 15
22 21 21 22 22 21 20 20 20 20 20 19 18 17 17 16 16 16 16 15 16 16 16 16 16 16 16 16 16 16 16 15 15 15 15 15 15 15 15 15 14 14 14 14
21 21 21 20 20 19 19 19 19 18 18 17 16 16 16 15 15 15 14 14 14 14 14 14 15 15 15 14 15 15 15 15 14 14 14 14 14 14 14 14 14 13 13 13
20 21 20 19 18 18 18 18 18 17 17 16 15 15 14 14 14 14 14 13 13 13 13 13 13 14 14 14 14 14 14 14 14 14 13 14 13 13 13 13 13 13 12 12
19 19 19 18 17 17 16 16 16 16 15 15 14 14 13 13 13 13 13 13 13 13 12 12 13 13 13 13 13 13 13 13 13 13 13 13 13 12 12 12 12 12 12 11
18 17 17 16 15 15 15 15 14 14 14 14 14 13 13 12 12 12 12 12 12 12 12 12 12 12 12 12 13 13 12 12 12 12 12 12 12 12 11 11 11 11 11 11
16 15 15 14 14 14 13 13 13 13 13 13 12 12 12 11 11 11 11 11 11 11 11 11 11 11 11 12 12 12 12 12 12 11 11 11 11 11 11 11 11 10 10 10
15 14 14 13 13 13 13 12 12 12 12 12 11 11 11 11 11 11 11 11 11 11 11 11 11 11 11 11 11 12 12 11 11 11 11 11 11 11 11 10 10 10 9 9
14 14 13 13 12 12 12 12 12 11 11 11 11 10 10 10 10 10 10 10 10 10 10 10 10 10 11 11 11 11 11 11 11 11 11 11 11 11 10 10 10 9 8 8
13 12 12 12 12 11 11 11 11 11 11 10 10 10 10 10 10 10 10 10 10 10 10 10 10 10 10 10 11 11 11 11 11 11 11 11 11 10 10 10 9 8 8 8
12 12 12 11 11 11 11 11 11 10 10 10 10 10 10 10 10 10 10 10 9 9 9 10 10 10 10 10 10 11 11 11 11 11 10 10 10 10 9 9 8 8 7 7
12 12 12 11 11 11 11 11 10 10 10 10 10 10 10 10 10 9 9 9 9 9 9 9 9 9 10 10 10 10 11 10 10 10 10 9 9 9 9 8 8 7 7 7
12 12 11 11 11 11 11 10 10 10 10 10 10 10 10 10 9 9 9 9 9 9 9 9 9 9 10 10 10 10 10 10 10 9 9 9 9 8 8 8 7 7 6 6
12 11 11 11 11 11 11 11 11 11 10 10 10 10 10 10 9 9 9 9 9 9 9 9 9 9 9 10 10 10 10 10 9 9 9 8 8 7 7 7 6 6 6 5
12 11 11 11 11 11 11 11 11 11 10 10 10 10 10 10 9 9 9 9 9 9 9 9 9 9 9 9 9 9 9 9 9 8 8 7 7 6 6 6 5 5 5 4
12 11 11 11 11 11 11 11 11 11 11 10 10 10 10 10 9 9 9 9 9 9 8 8 8 9 9 9 9 8 8 8 8 7 7 6 6 6 5 5 5 4 4 4
11 11 11 11 11 11 11 11 11 11 10 10 10 10 10 10 10 9 9 8 8 8 8 8 8 8 8 8 8 8 7 7 7 7 6 6 5 5 5 4 4 4 3 3
11 11 11 11 11 11 11 11 10 10 10 10 10 10 10 10 9 9 8 8 8 8 8 7 7 7 7 7 7 7 6 6 6 6 6 5 5 4 4 4 4 3 3 3
10 10 11 11 11 11 10 10 10 10 10 10 10 10 10 9 9 8 8 8 7 7 7 7 7 6 6 6 6 6 6 6 5 5 5 5 5 4 4 3 3 3 3 2
10 10 10 11 11 10 10 10 10 10 10 10 10 9 9 9 8 8 7 7 7 7 7 6 6 6 6 6 6 5 5 5 5 5 5 4 4 4 3 3 3 3 2 2
10 10 10 10 10 10 10 10 10 10 10 9 9 9 9 8 8 8 7 7 7 6 6 6 6 6 6 5 5 5 5 5 5 4 4 4 4 3 3 3 2 2 2 2
Wind_Speed
13 9 8 10 13 15 14 13 13 10 6 4 1 1 2 4 8 9 10 11 11 10 10 10 10 10 10 10 10 10 11 12 11 10 9 8 8 8 7 7 8 7 6 6
13 12 11 12 13 15 16 15 13 11 8 2 1 1 1 4 6 9 10 10 9 8 9 9 9 9 9 9 9 9 9 10 10 9 9 9 8 8 7 7 6 6 6 5
14 14 12 15 14 14 13 14 13 11 6 1 2 2 3 4 5 7 8 9 8 7 8 8 8 7 7 8 8 8 8 8 8 9 9 8 9 8 7 7 6 5 5 4
12 13 16 9 6 8 10 11 9 8 4 1 2 3 4 4 6 7 7 7 7 7 7 7 7 7 7 8 8 7 7 6 7 7 7 7 6 6 6 5 5 4 5 5
11 14 15 9 5 6 8 8 6 6 4 3 5 5 7 8 9 9 8 7 7 6 6 6 7 7 7 7 7 7 7 5 5 5 6 5 5 4 4 4 4 3 3 3
10 12 12 4 6 6 6 6 9 8 6 4 2 0 3 7 9 10 10 9 7 7 7 7 5 7 8 7 7 6 6 5 4 4 5 5 5 4 3 3 4 3 3 2
14 14 8 5 8 7 5 4 11 9 6 3 3 3 6 8 10 11 10 10 8 9 9 7 7 8 9 9 8 7 7 7 7 6 5 6 5 4 4 5 5 5 5 4
10 12 7 9 7 5 5 8 9 8 7 6 7 9 10 11 11 11 10 11 11 11 11 9 9 10 11 10 9 9 10 10 9 8 7 7 7 6 5 5 5 5 5 4
2 2 4 7 5 5 6 7 7 5 6 7 8 8 10 11 11 12 11 11 11 13 13 11 11 11 12 10 9 10 12 11 10 10 9 8 8 7 6 5 5 4 5 5
3 1 3 7 7 8 7 5 4 5 7 9 9 9 10 10 11 12 12 11 11 13 13 12 12 12 11 10 10 11 12 11 10 10 11 11 9 8 8 7 6 6 6 6
4 4 4 5 7 8 7 6 6 7 7 8 10 11 11 12 12 12 11 11 11 12 12 12 12 12 11 10 10 11 10 10 10 11 11 11 11 10 10 8 7 7 7 7
3 2 3 3 5 6 6 6 6 8 8 9 10 13 14 13 12 12 12 11 12 13 13 13 12 11 10 10 9 9 8 8 8 8 8 8 9 10 15 12 14 15 13 9
2 3 2 3 4 6 6 7 8 10 11 11 12 14 14 13 12 12 13 13 13 13 13 12 12 12 10 9 9 9 8 7 6 6 6 7 7 7 7 8 11 12 11 11
3 3 4 3 4 6 8 10 12 13 14 14 14 14 14 14 13 13 12 12 12 13 12 12 12 11 9 9 9 8 8 8 6 5 5 5 5 5 5 6 6 5 5 6
3 4 5 7 8 10 11 12 14 14 14 15 14 14 14 14 13 13 12 12 12 12 12 12 11 10 8 8 8 8 7 6 5 5 4 5 5 5 5 6 6 6 5 3
6 7 9 11 12 13 14 14 14 14 13 14 13 13 14 14 14 13 12 11 12 12 11 10 10 8 7 7 6 6 6 6 5 4 5 6 6 6 6 6 7 7 6 5
8 9 11 13 13 12 12 13 13 14 14 13 13 14 14 13 13 12 11 11 11 10 9 9 8 7 7 6 4 4 5 5 4 6 7 7 6 6 6 6 7 7 6 6
9 10 12 13 13 13 13 14 14 14 13 13 14 13 12 12 12 11 10 11 10 10 9 8 7 6 7 7 6 4 4 5 6 7 7 6 5 5 6 6 6 6 5 5
12 13 13 13 13 13 14 14 13 12 12 12 13 12 12 11 10 10 9 9 9 9 7 7 6 5 6 8 7 2 4 6 7 6 6 5 5 7 7 7 7 7 6 6
13 13 13 14 14 14 14 14 13 12 12 13 13 12 11 10 9 9 9 8 7 7 6 6 5 6 6 7 8 4 6 7 7 7 6 6 7 7 7 7 7 7 7 6
14 15 14 13 13 13 14 13 13 12 12 12 11 11 10 9 8 8 8 9 7 6 5 5 5 6 6 7 5 5 6 7 7 7 7 7 7 7 7 7 7 6 6 6
12 13 13 12 12 12 12 12 12 13 12 11 11 11 10 9 9 8 8 7 7 5 4 6 7 8 10 8 5 6 7 7 7 7 7 7 6 6 6 6 6 6 6 6
11 11 11 11 11 11 11 11 12 11 10 10 9 9 8 7 6 7 7 7 7 7 7 7 8 9 11 6 6 7 7 7 7 7 7 6 6 6 6 6 6 6 6 6
11 10 10 10 10 11 11 11 10 9 10 9 9 8 7 6 7 8 8 9 9 9 7 7 7 8 7 5 6 6 6 6 6 6 6 5 5 5 6 5 5 5 6 6
9 9 10 10 10 9 10 10 10 9 9 7 8 8 6 6 7 7 8 9 9 7 8 6 4 5 4 5 6 6 7 7 6 5 5 5 5 6 6 6 5 5 5 5
9 8 8 8 8 7 7 7 6 6 7 7 6 6 6 7 8 7 7 8 8 6 6 5 4 2 3 5 5 5 5 5 4 4 5 5 6 6 5 5 5 5 5 5
9 8 6 7 7 6 7 7 7 6 6 6 5 5 6 6 6 6 7 6 6 5 5 4 4 3 3 4 4 4 4 4 4 4 5 5 5 5 5 5 4 5 5 6
Wind_Direction
267 276 281 281 276 276 275 270 267 267 260 278 254 184 156 147 146 142 142 146 147 154 153 152 153 155 162 166 168 169 172 173 177 181 181 181 184 188 188 188 197 193 191 193
271 265 261 263 259 265 269 273 274 277 278 287 73 86 162 169 159 152 148 148 146 146 145 147 151 156 157 162 166 166 172 177 176 178 181 184 187 191 191 193 197 191 193 191
269 271 261 254 254 257 259 267 271 274 285 255 104 148 174 154 146 141 137 135 137 148 145 145 151 152 156 161 162 165 172 176 173 178 183 187 192 189 190 192 193 190 190 187
264 270 265 267 278 281 270 271 288 297 308 315 105 87 74 97 122 114 113 118 124 132 134 141 147 151 151 154 154 157 165 176 172 176 182 183 188 190 188 185 186 189 188 189
258 260 261 264 289 298 294 287 336 332 339 35 62 80 71 71 85 88 85 91 99 111 126 132 140 142 139 142 147 156 162 163 162 171 173 168 174 176 173 175 178 176 167 169
250 259 264 303 351 343 309 276 8 11 23 31 17 339 89 73 77 82 82 73 78 91 92 94 105 129 125 120 119 122 124 128 133 140 144 146 149 150 152 151 149 148 122 111
245 254 261 338 342 327 279 334 2 9 13 0 348 27 105 95 83 77 80 85 81 82 80 79 85 98 103 100 96 97 100 97 95 101 110 112 114 113 117 119 120 122 115 104
244 251 249 16 10 8 356 344 351 12 25 48 71 96 102 98 91 84 80 82 82 79 73 69 77 86 87 84 83 84 85 83 80 77 82 88 92 94 104 116 119 118 113 104
253 268 51 35 27 5 347 340 354 36 55 89 99 104 103 99 95 88 80 78 77 80 75 67 69 78 83 79 82 86 85 81 77 73 69 67 73 78 80 80 86 93 95 91
268 283 24 26 19 9 3 8 25 72 85 103 108 108 106 99 94 91 85 82 82 83 80 74 71 76 79 79 82 86 87 85 82 76 72 64 58 59 62 56 58 64 71 74
267 292 337 17 20 19 28 39 62 87 95 108 112 110 107 103 96 92 88 85 84 84 85 82 77 76 76 80 84 85 85 87 88 83 78 73 66 54 61 55 62 68 65 65
294 2 339 1 21 31 42 58 87 102 98 102 108 110 105 100 97 95 91 88 86 84 85 83 80 76 73 74 79 83 85 82 84 89 91 92 92 79 57 64 67 69 69 75
12 18 55 62 42 53 68 83 95 105 107 105 104 106 105 103 100 98 95 92 89 88 87 85 80 74 68 65 69 72 79 79 82 88 92 96 102 101 95 73 64 64 68 72
71 75 87 84 86 86 93 96 97 98 100 102 103 103 103 102 100 97 94 93 93 91 87 84 81 75 70 66 64 66 74 74 71 76 81 87 93 103 110 114 109 94 77 74
72 90 112 116 108 104 105 104 101 100 102 103 104 105 105 103 100 97 95 94 91 88 85 83 79 72 64 65 62 61 65 65 63 71 74 75 72 76 81 85 90 99 94 68
100 105 115 120 117 116 114 110 107 106 107 108 108 107 104 101 98 94 89 88 88 86 84 81 79 76 73 71 73 81 75 60 53 66 71 68 68 68 69 75 78 77 69 49
129 129 125 121 120 119 114 112 113 113 111 108 105 105 106 105 102 98 94 91 89 87 83 77 72 67 64 53 40 80 94 89 72 60 63 57 55 58 60 64 71 73 71 53
125 123 122 122 120 118 116 114 114 114 113 113 114 111 110 108 106 105 105 101 95 86 78 72 66 62 57 39 18 32 66 74 70 68 64 56 51 58 63 66 68 71 71 68
120 121 122 122 121 119 119 119 119 119 120 118 113 109 105 105 106 105 102 101 97 88 76 66 56 60 60 35 4 33 63 76 79 76 74 71 61 58 55 55 55 51 47 48
124 124 122 122 123 124 125 128 126 123 122 120 117 116 114 112 111 111 106 94 87 89 86 65 61 57 52 25 355 35 58 65 73 73 69 63 59 58 56 53 53 48 45 43
123 122 123 125 123 121 123 124 124 122 120 120 120 121 120 119 121 119 112 103 89 74 81 81 61 50 37 4 348 49 61 63 65 66 67 65 61 57 55 52 49 47 46 43
119 121 121 119 118 119 123 124 122 121 122 123 124 124 123 122 117 106 95 98 97 69 67 74 66 45 13 359 45 61 64 64 66 68 67 64 64 64 60 54 51 49 48 45
110 110 111 112 112 113 114 114 116 117 118 118 119 119 117 112 114 115 110 101 97 75 69 70 54 31 4 24 57 66 66 66 69 73 74 70 67 65 63 58 54 53 51 45
103 106 110 112 111 109 107 105 105 108 110 109 112 114 114 110 104 102 105 98 87 90 86 76 47 23 5 51 63 68 68 68 69 70 74 78 76 72 67 60 55 55 52 47
111 114 113 113 113 112 110 111 113 115 113 108 109 109 104 103 107 108 110 114 123 113 105 94 56 17 39 65 70 70 66 60 55 54 67 64 67 70 66 60 51 47 46 43
104 102 99 99 103 112 119 120 119 118 115 113 109 107 105 106 111 115 119 121 116 111 113 121 116 106 84 81 78 81 87 95 86 75 67 65 67 69 67 58 53 45 43 41
107 107 107 106 107 104 106 107 107 107 107 111 113 114 116 118 118 121 123 125 127 121 115 111 103 93 90 90 87 84 82 81 77 73 73 68 66 68 69 62 52 45 35 41
Height
1434 1432 1436 1439 1439 1436 1435 1434 1440 1438 1439 1438 1435 1437 1439 1441 1443 1447 1451 1456 1460 1464 1468 1472 1475 1479 1482 1485 1488 1491 1494 1497 1500 1503 1507 1510 1513 1516 1518 1520 1522 1524 1526 1528
1440 1434 1436 1439 1437 1435 1433 1431 1431 1432 1436 1433 1435 1437 1439 1441 1444 1446 1451 1454 1459 1463 1466 1470 1474 1478 1481 1484 1487 1490 1493 1496 1499 1502 1505 1508 1511 1514 1516 1518 1520 1522 1523 1525
1446 1437 1438 1445 1434 1431 1430 1427 1428 1433 1433 1432 1436 1439 1441 1442 1444 1447 1451 1454 1458 1462 1465 1469 1473 1476 1480 1483 1487 1489 1492 1495 1498 1501 1503 1506 1509 1511 1514 1516 1518 1520 1521 1523
1446 1447 1457 1436 1424 1424 1426 1426 1424 1426 1428 1431 1435 1439 1441 1442 1445 1448 1452 1455 1458 1462 1465 1469 1472 1476 1479 1482 1485 1488 1490 1494 1496 1499 1501 1504 1507 1509 1511 1513 1515 1517 1519 1521
1447 1449 1442 1432 1427 1428 1431 1431 1428 1430 1432 1435 1438 1441 1445 1446 1448 1450 1452 1455 1458 1462 1466 1468 1472 1475 1478 1481 1484 1486 1489 1492 1495 1497 1500 1502 1504 1506 1509 1510 1512 1514 1516 1518
1447 1452 1452 1439 1430 1430 1432 1438 1436 1435 1437 1438 1439 1443 1450 1451 1451 1453 1454 1456 1459 1462 1465 1468 1471 1474 1477 1480 1483 1485 1488 1490 1493 1495 1498 1500 1502 1504 1506 1508 1509 1512 1513 1514
1447 1450 1442 1437 1432 1432 1444 1449 1442 1440 1442 1443 1443 1446 1451 1452 1453 1455 1456 1458 1461 1463 1465 1468 1471 1474 1476 1479 1482 1485 1487 1490 1492 1495 1497 1498 1500 1502 1504 1506 1507 1509 1510 1512
1445 1451 1450 1441 1437 1444 1449 1447 1445 1444 1444 1445 1447 1449 1452 1454 1456 1457 1459 1460 1462 1463 1466 1469 1471 1474 1476 1480 1483 1485 1487 1489 1491 1494 1496 1498 1499 1501 1503 1505 1506 1508 1509 1510
1443 1447 1445 1444 1446 1448 1448 1447 1446 1447 1448 1447 1450 1453 1455 1457 1458 1460 1462 1463 1465 1467 1469 1471 1474 1476 1478 1481 1484 1486 1488 1490 1492 1494 1496 1498 1500 1501 1503 1505 1506 1507 1508 1510
1441 1441 1444 1446 1447 1448 1448 1448 1448 1448 1449 1450 1452 1455 1457 1459 1461 1462 1465 1467 1469 1470 1472 1475 1478 1479 1481 1484 1486 1488 1490 1492 1494 1496 1498 1500 1501 1502 1503 1504 1506 1507 1507 1509
1443 1444 1446 1447 1449 1449 1449 1449 1448 1449 1451 1452 1454 1457 1460 1462 1465 1467 1469 1472 1473 1475 1477 1480 1482 1484 1486 1488 1490 1491 1493 1495 1497 1499 1500 1502 1503 1504 1505 1506 1508 1508 1508 1509
1446 1448 1450 1451 1451 1450 1450 1450 1451 1452 1454 1456 1458 1460 1463 1465 1468 1471 1473 1476 1477 1480 1482 1485 1487 1489 1490 1492 1494 1495 1497 1499 1500 1502 1503 1505 1506 1507 1508 1509 1510 1511 1511 1511
1448 1448 1449 1451 1452 1452 1452 1452 1453 1454 1455 1458 1462 1464 1467 1470 1473 1475 1478 1480 1482 1485 1487 1489 1491 1493 1495 1496 1498 1499 1501 1503 1504 1506 1507 1508 1510 1510 1510 1512 1513 1513 1513 1514
1448 1448 1449 1451 1452 1453 1453 1454 1456 1457 1459 1462 1465 1468 1471 1474 1477 1480 1483 1485 1487 1489 1491 1493 1495 1497 1499 1500 1501 1503 1504 1506 1507 1509 1510 1511 1512 1513 1513 1514 1514 1515 1515 1515
1448 1449 1450 1452 1453 1455 1456 1457 1459 1462 1464 1467 1470 1473 1476 1479 1482 1485 1488 1490 1492 1494 1496 1498 1499 1501 1503 1504 1506 1507 1508 1509 1510 1511 1513 1514 1514 1515 1516 1516 1517 1517 1517 1517
1449 1450 1452 1454 1456 1458 1459 1461 1463 1467 1469 1472 1475 1479 1482 1484 1487 1490 1493 1495 1496 1499 1501 1502 1503 1505 1507 1508 1509 1511 1511 1512 1513 1514 1515 1516 1517 1518 1518 1518 1518 1519 1518 1518
1450 1452 1454 1456 1459 1461 1463 1466 1468 1471 1474 1477 1480 1483 1486 1489 1492 1495 1497 1499 1501 1503 1505 1506 1508 1509 1510 1511 1512 1514 1515 1515 1516 1516 1517 1518 1519 1519 1520 1520 1520 1520 1520 1520
1452 1454 1457 1459 1461 1464 1467 1470 1473 1477 1479 1482 1485 1488 1491 1494 1497 1499 1501 1504 1506 1507 1509 1510 1511 1512 1513 1514 1515 1516 1517 1517 1518 1518 1519 1520 1521 1521 1521 1521 1521 1521 1521 1521
1455 1457 1460 1463 1466 1469 1472 1475 1478 1481 1484 1487 1490 1493 1496 1498 1501 1503 1506 1508 1509 1511 1513 1514 1515 1515 1516 1516 1517 1518 1519 1519 1520 1520 1521 1521 1522 1522 1522 1522 1522 1522 1522 1522
1459 1462 1465 1468 1471 1474 1477 1480 1483 1486 1489 1491 1494 1497 1500 1503 1505 1508 1510 1511 1513 1514 1515 1516 1517 1518 1518 1518 1519 1520 1521 1521 1521 1522 1522 1522 1523 1523 1523 1523 1523 1523 1523 1522
1463 1466 1469 1472 1476 1479 1481 1484 1487 1490 1493 1496 1499 1501 1504 1506 1509 1511 1512 1514 1516 1517 1517 1518 1519 1519 1520 1520 1520 1521 1522 1522 1523 1523 1523 1524 1524 1524 1524 1524 1524 1523 1523 1522
1467 1470 1474 1477 1480 1483 1486 1489 1491 1494 1497 1500 1502 1505 1507 1509 1511 1513 1515 1516 1518 1518 1519 1520 1520 1520 1521 1521 1522 1523 1523 1523 1524 1524 1524 1524 1525 1525 1525 1525 1524 1524 1523 1522
1471 1474 1478 1481 1484 1487 1490 1492 1495 1498 1500 1503 1505 1507 1510 1511 1514 1515 1517 1518 1519 1520 1520 1521 1521 1521 1522 1523 1523 1524 1524 1525 1525 1525 1525 1525 1526 1526 1525 1525 1525 1524 1523 1523
1476 1479 1482 1485 1488 1491 1493 1496 1499 1501 1504 1506 1508 1510 1512 1514 1516 1517 1518 1519 1520 1521 1521 1522 1522 1523 1524 1524 1525 1525 1525 1526 1526 1526 1527 1526 1526 1526 1526 1525 1525 1525 1524 1523
1481 1483 1486 1489 1491 1494 1497 1499 1502 1504 1507 1509 1511 1513 1515 1516 1517 1519 1520 1520 1522 1523 1523 1523 1524 1524 1525 1526 1526 1526 1526 1526 1527 1527 1527 1527 1527 1527 1526 1526 1526 1525 1525 1524
1485 1488 1490 1492 1495 1497 1500 1502 1504 1507 1509 1511 1513 1515 1516 1517 1519 1520 1521 1522 1523 1524 1524 1525 1525 1526 1526 1527 1527 1527 1527 1527 1528 1528 1528 1528 1528 1527 1527 1527 1526 1526 1525 1524
1489 1491 1494 1496 1498 1500 1502 1505 1507 1509 1511 1512 1514 1516 1517 1519 1520 1521 1522 1523 1524 1525 1525 1526 1526 1527 1527 1528 1528 1528 1528 1529 1529 1529 1529 1529 1529 1528 1528 1527 1527 1526 1525 1524